Estación Meteorológica Peña el Pijo (Robertgarden) [ 07/15/20 06:19:28 CEST ]

Fecha Hora Presion(HPa) Temp (°C) Humedad % Rocio (°C) Viento ( m/s) Direccion Lluvia 1Hora(mm) Lluvia 24H(mm) LLuvia Total(mm)
2020-Jan-31 01:09:21 1013.100 - - - - N     39.88
2020-Jan-31 02:13:51 1013.000 - - - - N     39.88
2020-Jan-31 03:09:33 1013.100 - - - - N     39.88
2020-Jan-31 04:09:48 1013.200 - - - - N     39.88
2020-Jan-31 05:09:51 1013.000 - - - - N     39.88
2020-Jan-31 06:10:12 1012.900 - - - - N     39.88
2020-Jan-31 07:08:58 1013.100 - - - - N     39.88
2020-Jan-31 08:09:06 1013.600 - - - - N     39.88
2020-Jan-31 09:08:43 1013.900 - - - - N     39.88
2020-Jan-31 10:09:12 1014.200 - - - - N     39.88
2020-Jan-31 11:08:45 1014.400 - - - - N     39.88
2020-Jan-31 12:09:24 1014.200 - - - - N     39.88
2020-Jan-31 13:09:15 1013.500 - - - - N     39.88
2020-Jan-31 14:09:14 1012.800 - - - - N     39.88
2020-Jan-31 15:09:16 1012.100 - - - - N     39.88
2020-Jan-31 16:09:15 1012.200 - - - - N     39.88
2020-Jan-31 17:09:28 1012.500 - - - - N     39.88
2020-Jan-31 18:08:56 1012.900 - - - - N     39.88
2020-Jan-31 19:09:21 1013.200 - - - - N     39.88
2020-Jan-31 20:09:14 1013.300 - - - - N     39.88
2020-Jan-31 21:09:31 1013.300 - - - - N     39.88
2020-Jan-31 22:08:51 1013.700 - - - - N     39.88
2020-Jan-31 23:09:04 1013.700 - - - - N     39.88

Temperatura Máxima:    Temperatura Mínima:
Presión Máxima:1014.400 Hpa    Presión Mínima:1012.100 Hpa


Volver